Hourly Data Report for October 23, 2016

All times are specified in Local Standard Time (LST). Add 1 hour to adjust for Daylight Saving Time where and when it is observed.

CHARLOTTETOWN A
PRINCE EDWARD ISLAND

46°17'21.000" N
63°07'09.000" W
48.50 m
8300301
71706
YYG

Download Data

Hourly Data (October 2016)
Hourly Data Report for October 23, 2016
Temp Definition
°C
Dew Point Temp Definition
°C
Rel Hum Definition
%
Wind Dir Definition
10's deg

Wind Spd Definition
km/h
Visibility Definition
km
Stn Press Definition
kPa
Hmdx Definition


Wind Chill Definition


Weather Definition


TIME
00:00 Legend Double Dagger 17.2 15.6 90 19 23 24.1 98.64     LegendNANA
01:00 Legend Double Dagger 16.3 13.6 84 19 21 24.1 98.67     LegendNANA
02:00 Legend Double Dagger 15.5 12.8 84 19 34 24.1 98.74     Mostly Cloudy
03:00 Legend Double Dagger 14.4 10.8 79 19 24 24.1 98.78     LegendNANA
04:00 Legend Double Dagger 14.2 10.3 77 19 33 24.1 98.70     LegendNANA
05:00 Legend Double Dagger 13.8 9.3 74 20 39 24.1 98.72     Mostly Cloudy
06:00 Legend Double Dagger 13.2 8.3 72 20 48 24.1 98.73     LegendNANA
07:00 Legend Double Dagger 11.7 7.1 73 19 39 24.1 98.83     LegendNANA
08:00 Legend Double Dagger 11.5 6.1 69 20 44 24.1 98.82     Mostly Cloudy
09:00 Legend Double Dagger 11.9 4.9 62 20 48 24.1 98.79     LegendNANA
10:00 Legend Double Dagger 12.1 4.9 61 19 45 24.1 98.78     LegendNANA
11:00 Legend Double Dagger 12.3 4.3 58 20 52 24.1 98.70     Mostly Cloudy
12:00 Legend Double Dagger 13.0 4.5 56 20 52 24.1 98.66     LegendNANA
13:00 Legend Double Dagger 12.7 4.0 55 20 44 24.1 98.62     LegendNANA
14:00 Legend Double Dagger 11.2 4.7 64 21 42 24.1 98.63     Mostly Cloudy
15:00 Legend Double Dagger 9.1 4.9 75 22 38 24.1 98.68     Rain Showers
16:00 Legend Double Dagger 8.3 5.1 80 21 31 24.1 98.75     Rain Showers
17:00 Legend Double Dagger 8.6 3.1 68 23 33 24.1 98.75     Mostly Cloudy
18:00 Legend Double Dagger 8.2 2.7 68 22 37 24.1 98.84     LegendNANA
19:00 Legend Double Dagger 7.1 3.0 75 23 24 24.1 98.93     Rain Showers
20:00 Legend Double Dagger 7.1 0.8 64 24 23 24.1 98.93     Mostly Cloudy
21:00 Legend Double Dagger 6.7 0.8 66 24 21 24.1 98.93     LegendNANA
22:00 Legend Double Dagger 6.4 0.5 66 24 27 24.1 98.93     LegendNANA
23:00 Legend Double Dagger 6.2 -0.1 64 25 24 24.1 98.94     Mostly Cloudy

Notes on Data Quality.

Legend

  • E = Estimated
  • M = Missing
  • NA = Not Available
  • ‡ = Partner data that is not subject to review by the National Climate Archives
Date modified: